Location: Mentone
(34.5413°N, 85.5351°W)
Time: 20:56:19
(UTC-06:00)

ADEOS Rocket - Visible Passes

Search period start: 28 February 2015 00:00
Search period end: 10 March 2015 01:00
Orbit: 860 x 1306 km, 98.7° (Epoch: 28 February)

Date Brightness Start Highest point End Pass type
(mag) Time Alt. Az. Time Alt. Az. Time Alt. Az.
28 Feb 3.5 19:25:21 10° S 19:32:17 81° WSW 19:39:54 10° NNW visible
28 Feb 6.0 21:16:59 10° WSW 21:19:11 11° W 21:20:44 10° WNW visible
01 Mar 3.7 18:37:03 10° SE 18:43:39 46° ENE 18:50:52 10° N visible
01 Mar 5.0 20:23:16 10° SSW 20:29:21 30° W 20:35:42 10° NW visible
02 Mar 3.7 19:33:09 10° S 19:40:08 71° W 19:47:45 10° NNW visible
03 Mar 3.6 18:44:35 10° SE 18:51:25 54° ENE 18:58:51 10° N visible
03 Mar 5.3 20:31:27 10° SSW 20:37:19 26° W 20:43:18 10° NW visible
04 Mar 4.4 17:57:36 10° ESE 18:03:05 25° ENE 18:09:06 10° NNE visible
04 Mar 3.9 19:40:59 10° S 19:48:00 61° W 19:55:34 10° NNW visible
05 Mar 3.5 18:52:10 10° SSE 18:59:12 63° ENE 19:06:49 10° N visible
05 Mar 5.5 20:39:45 10° SW 20:45:17 22° W 20:50:49 10° NW visible
06 Mar 4.3 18:04:52 10° ESE 18:10:49 29° ENE 18:17:15 10° N visible
06 Mar 4.2 19:48:53 10° S 19:55:53 53° W 20:03:22 10° NNW visible
07 Mar 3.4 18:59:48 10° SSE 19:07:01 72° ENE 19:14:45 10° N visible
07 Mar 5.7 20:48:09 10° SW 20:53:17 19° W 20:58:14 10° NW visible
08 Mar 4.2 19:12:14 10° SE 19:18:34 33° ENE 19:25:21 10° N visible
08 Mar 4.4 20:56:50 10° S 21:03:47 46° W 21:11:07 10° NNW visible
09 Mar 3.5 20:07:31 10° SSE 20:14:50 82° ENE 20:22:39 10° N visible
09 Mar 5.9 21:56:43 10° SW 22:01:18 16° W 22:05:31 10° NW visible
